Location: Austin
(30.3000°N, 97.7500°W)
Time: 10:00:22
(UTC-05:00)

NOSS 3-4 (A) - Pass Details

Date: 03 April 2024
Orbit: 801 x 1411 km, 63.4° (Epoch: 19 September)

Event Time Altitude Azimuth Distance (km) Brightness Sun altitude
Exits shadow 04:56:47 64° 21° (NNE) 894 3.3 -29.7°
Drops below altitude 10° 05:01:32 10° 28° (NNE) 2,473 6.3 -28.8°
Sets 05:04:06 0° 29° (NNE) 3,472 7.2 -28.3°
